Погода Петропавловск-Камч.

Погода Петропавловск-Камч. : погода сейчас, прогноз погоды и архив. Всё, что Вы хотите узнать о погоде Петропавловск-Камч.!

Хотите узнать прогноз погоды Петропавловск-Камч.? Тогда Вам сюда: Погода Петропавловск-Камч.

Поиск расширенной информации на нашем сайте:

Полезная информация:

Другие новости

Новости СМИ2

Главная страница сайта

Новости сайта

03.07.2017

Напоминаем, что на нашем специализированном сайте Метеоцентр.Азия вы можете получить высокодетализированные автоматические прогнозы погоды по пунктам России, СНГ и мира в авиационном формате (включающие направление и скорость ветра, видимость, явления погоды, количество и форму облачности, нижнюю и верхнюю границу облачности).

Рекомендуем:

Погода Петропавловск-Камч. - сегодня

Время (UTC), дата Ветер
(°,м/с) 
Видим.   Явления Облачность Т
(°С)
Тd
(°С)
f(%) Тe
(°С)
Pmin
(гПа)
dP
(гПа)
Po
(мм)
O2
(г/м3)
Тmin Tmax R s Состояние
почвы
12 15.07.19 360 (С) 6{10}  20000 м    3/0 верхняя 
[Ci fib]
+16.6 +10.6 68 +18  1009.8  755  285           
15 15.07.19 350 (С) 20000 м    3/0 верхняя 
[Ci fib]
+14.7 +10.3 75 +16  1010.2  0.4  755  287           
18 15.07.19 340 (С) 20000 м    3/0 верхняя 
[Ci fib]
+12.2 +9.9 86 +13  1010.4  0.2  756  290           
21 15.07.19 340 (С) 20000 м    4/0 верхняя 
[Ci fib]
+15.8 +11.7 77 +19  1010.8  0.4  756  286  +12.1         
00 16.07.19 240 (ЮЗ) 20000 м  туман на расстоянии  4/3 300 м верхняя 
[St|Ci fib]
+18.1 +11.5 65 +23  1010.6  0.1  756  283           
03 16.07.19 150 (ЮВ) 10 км    ясно 
+22.9 +10.7 46 +25  1010  -0.6  755  279           
06 16.07.19 140 (ЮВ) 10 км    ясно 
+23.2 +11.5 48 +26  1009.9  0.1  755  278           
09 16.07.19 140 (ЮВ) 10 км    ясно 
+19 +10.7 59 +21  1010.2  0.3  756  283    +23.6       
12 16.07.19 140 (ЮВ) 20000 м    ясно 
+14.5 +10.8 78 +18  1011.9  1.6  757  288           
15 16.07.19 тихо ()   20000 м    6/3 600 м средняя, верхняя 
[Sc|Ac trans|Ci fib]
+13.2 +11.5 89 +16  1012.3  0.4  757  289           
18 16.07.19 тихо ()   20000 м    4/0 средняя, верхняя 
[Ac trans|Ci fib]
+13.1 +11.5 90 +16  1012.8  0.5  757  289           
21 16.07.19 230 (ЮЗ) 20000 м    ясно 
+15.4 +12.3 82 +21  1013.1  0.3  758  287  +13         
00 17.07.19 160 (Ю) 20000 м    ясно 
+20.1 +13.5 66 +26  1012.5  -0.5  757  282           
03 17.07.19 150 (ЮВ) 20000 м    3/1 1000 м верхняя 
[Sc|Ci fib]
+19.6 +12.8 65 +25  1011.9  -0.6  757  282           
06 17.07.19 150 (ЮВ) 20000 м    ясно 
+19.4 +12.5 64 +24  1011.7  -0.2  757  282           
09 17.07.19 140 (ЮВ) 20000 м    4/4 600 м 
[Sc]
+13.2 +11 87 +15  1012.7  0.9  757  289    +22.4       
12 17.07.19 150 (ЮВ) 10 км  туман на расстоянии  10/10 200 м 
[St]
+11.1 +10 93 +13  1013.7  758  292           
15 17.07.19 170 (Ю) 4000 м  туман на расстоянии  10/10 200 м 
[St]
+10.8 +9.8 94 +13  1013.9  0.1  758  292           
18 17.07.19 140 (ЮВ) 0500 м  туман  ?/?  
+10.9 +10 94 +13  1013.7  0.1  758  292           
21 17.07.19 тихо ()   0500 м  туман  ?/?  
+11.8 +10.9 94 +14  1014  0.3  758  291  +10.7         
00 18.07.19 160 (Ю) 10 км  туман на расстоянии  ясно 
+16.1 +11.8 76 +20  1013.4  -0.5  758  286           
03 18.07.19 150 (ЮВ) 20000 м  туман на расстоянии  9/0 верхняя 
[Ci fib]
+16.7 +11.9 73 +21  1013  -0.4  758  285           
06 18.07.19 170 (Ю) 20000 м    10/0 верхняя 
[Ci fib]
+18.5 +12.5 68 +24  1012.8  -0.2  758  283           
09 18.07.19 330 (СЗ) 20000 м    6/1 600 м средняя, верхняя 
[Sc|Ac trans|Ci fib]
+19 +12.4 66 +23  1013.5  0.7  758  283    +22       
12 18.07.19 350 (С) 20000 м    8/3 600 м верхняя 
[Sc|Ci fib]
+17.4 +12 71 +21  1014.8  1.3  759  285           
Время (UTC), дата Ветер
(°,м/с) 
Видим.   Явления Облачность Т
(°С)
Тd
(°С)
f(%) Тe
(°С)
Pmin
(гПа)
dP
(гПа)
Po
(мм)
O2
(г/м3)
Тmin Tmax R s Состояние
почвы

Для получения пояснительной информации подведите курсор к названию столбца.

ПОГОДА Петропавловск-Камч. - архив

Всё, что Вы хотите узнать о погоде Петропавловск-Камч. - удобно и подробно!

Выберите нужную дату (начиная с 1 января 2018* года) и нажмите кнопку "Найти".
Будут отображены архивные сводки погоды по пункту Петропавловск-Камч., начиная с указанной даты.


Отображать данные в формате CSV (для использования в таблицах Excel)


Внимание! Наш архив погоды предназначен исключительно для личного некоммерческого использования в познавательных целях. Если Вам необходимы официальные справки о состоянии погоды (для производственных, юридических, коммерческих и т.п. целей), обращайтесь в органы Росгидромета.

*Примечание: данная дата относится к архиву по метеостанциям СССР (Россия, СНГ, Балтия).
Архив по метеостанциям Зарубежной Европы и Азии (кроме Китая) хранится 10 дней, по другим регионам земного шара (Китай, Африка, Америка, Австралия, Океания) - 1 день.

Петропавловск-Камч. - район местоположения метеостанции


Название, широта, долгота, высота метеостанции:
Петропавловск-Камч. (обсерватория) 53°ш. 158.6°д. 24 м над ур. моря [Российская Федерация]

Дополнительная информация

В oтличие oт бoльшинства пoгoдных сайтoв мы публикуем пoдрoбную метеoинфoрмацию в детальнoм прoфессиoнальнoм фoрмате.

Характеристики температуры и влажнoсти вoздуха измеряются на высoте 2 м в тени вдали oт зданий и деревьев.
Скoрoсть ветра измеряется на высoте 10 м (на урoвне рoста челoвека скoрoсть ветра ниже в 1.5-2 раза). Если метеoстанция нахoдится в гoрoде или в лесу, тo скoрoсть ветра занижена на 2-4 м/с пo сравнению с oткрытым местoм. Скoрoсть ветра над акватoриями крупных рек и oзёр, а также на вершинах хoлмoв на 2-5 м/с выше, чем в oбычных услoвиях.
Атмoсфернoе давление в разных тoчках местнoсти мoжет значительнo oтличаться oт давления на метеoстанции, в зависимoсти oт услoвий рельефа (при пoдъёме на 10 м давление пoнижается примернo на 1 мм рт.ст.).